Regional Weather Roundup
Issued by NWS Newport/Morehead, NC

Current Version | Previous Version | Text Only | Print | Product List | Glossary On
Versions: 1 2 3 4 5 6 7 8 9 10 11 12 13 14 15 16 17 18 19 20 21 22 23 24 25 26 27 28 29 30 31 32 33 34 35 36 37 38 39 40 41 42 43 44 45 46 47 48 49 50
000 ASUS42 KMHX 260813 RWRMHX WEATHER ROUNDUP FOR EASTERN NORTH CAROLINA NATIONAL WEATHER SERVICE NEWPORT/MOREHEAD CITY NC 400 AM EDT THU MAY 26 2016 NOTE: "FAIR" INDICATES FEW OR NO CLOUDS BELOW 12,000 FEET WITH NO SIGNIFICANT WEATHER AND/OR OBSTRUCTIONS TO VISIBILITY NCZ015>017-031-032-045>047-102-103-260900- NORTH COAST CITY SKY/WX TMP DP RH WIND PRES REMARKS EDENTON CLOUDY N/A N/A N/A S7 30.17S ELIZABETH CITY CLEAR 67 61 81 S10 30.16S KITTY HAWK MOSUNNY 68 62 81 CALM 30.17S MANTEO NOT AVBL $$ NCZ045>047-081-094-103-104-260900- CENTRAL COAST CITY SKY/WX TMP DP RH WIND PRES REMARKS FRISCO PTCLDY 69 66 90 SW3 30.19F $$ NCZ095-097-098-100-101-260900- SOUTHERN COAST CITY SKY/WX TMP DP RH WIND PRES REMARKS BEAUFORT CLEAR 70 68 93 S6 30.19S CEDAR ISLAND NOT AVBL JACKSONVILLE PTCLDY 67 64 90 S3 30.18S PINEY ISLAND NOT AVBL WILMINGTON CLEAR 68 66 93 SW3 30.18S $$ NCZ011>013-027>030-043-044-078>080-089-090>093-098-260900- COASTAL PLAIN CITY SKY/WX TMP DP RH WIND PRES REMARKS AHOSKIE NOT AVBL CLINTON PTCLDY 66 65 97 CALM 30.18R ELIZABETHTOWN NOT AVBL GOLDSBORO CLEAR 69 67 94 S6 30.15S GREENVILLE MOCLDY 68 61 77 S6 30.18R HAVELOCK PTCLDY 67 64 90 S3 30.19F KENANSVILLE MOCLDY 65 63 93 CALM 30.18S KINSTON PTCLDY 69 63 82 S6 30.18R NEW BERN CLEAR 67 64 90 S3 30.19S RICHLANDS PTCLDY 65 64 97 S5 30.19R ROCKY MOUNT CLEAR 65 62 90 S5 30.16R WASHINGTON PTCLDY 67 63 87 S5 30.17S WHITEVILLE PTCLDY 67 65 93 CALM 30.18R $$ AMZ130-135-150-152-154-156-158-170-250-252-270-ANZ085-086-088-633-658-670-260900- MARINE OBSERVATIONS STATION/POSITION TIME TEMP WIND PRES WAVE SWELL AIR SEA DIR/SP/G HT/PER HT/PER (UTC) (F) (DEG/KT/KT) (MB) (FT/S) (FT/S) CHESAPEAKE LIGHT 0800 69 230/ 15/ 16 1021.1 64 E VA BEACH 0750 63 57 230/ 10/ 12 1021.0 3/ 9 2/ 9 DUCK 0700 71 60 200/ 9/ 11 1021.1 2 E DUCK 0711 62 N/A 2/ 7 OREGON INLET 0700 72 74 190/ 8/ 10 1022.0 13E OREGON INLT 0800 65 N/A 2/ 9 2/ 9 HATTERAS CG 0700 70 72 210/ 5/ 8 1022.1 DIAMOND BUOY 0750 71 69 200/ 4/ 6 1022.8 2/ 7 2/ 7 CAPE LOOKOUT 0800 71 180/ 5/ 6 1022.0 BEAUFORT LAB 0700 72 70 200/ 5/ 7 1021.6 30 SE NEW RVR IN 0725 74 N/A 2/ 9 27 SE WRIGHTSVLE 0708 75 74 220/ 8/ 12 1021.7 5 SE WRIGHTSVLE 0708 74 73 210/ 8/ 12 1022.7 225 S CAPE HAT 0750 74 78 80/ 10/ 12 1023.0 2/ 9 2/ 9 41 SE CHARLESTON 0750 77 76 180/ 8/ 10 1022.0 2/ 9 2/ 9 $$

USA.gov is the U.S. government's official web portal to all federal, state and local government web resources and services.